Tracking 19245 objects as of 18-Aug-2018
HD Live streaming from Space Station
objects crossing your sky now

IRS P4 (OCEANSAT 1)

Track IRS P4 (OCEANSAT 1) now!
10-day predictions
IRS P4 (OCEANSAT 1) is classified as:


NORAD ID: 25758
Int'l Code: 1999-029C
Perigee: 722.1 km
Apogee: 727.6 km
Inclination: 98.1 °
Period: 99.1 minutes
Semi major axis: 7095 km
RCS: 3.5411 m2 (large)
Launch date: May 26, 1999
Source: India (IND)
Launch site: SRIHARIKOTA (SRI)

Transmits image of its own view; not currently used for scientific mission but operational.
aabbcc
Your satellite tracking list
Your tracking list is empty




NASA's NSSDC Master Catalog

Two Line Element Set (TLE):
1 25758U 99029C   18229.17803611  .00000047  00000-0  21937-4 0  9992
2 25758  98.1184 299.7725 0003908  47.7229 312.4298 14.52435942 18560
Source of the keplerian elements: AFSPC